Location: Chuathbaluk
(61.5726°N, 159.2454°W)
Time: 22:41:04
(UTC+00:00)

Explorer 7 - Pass Details

Date: 06 December 2021
Orbit: 483 x 674 km, 50.3° (Epoch: 21 January)

Event Time Altitude Azimuth Distance (km) Brightness Sun altitude
Rises 18:16:33 0° 244° (WSW) 2,761 10.1 -7.9°
Reaches altitude 10° 18:19:28 10° 224° (SW) 1,823 9.4 -7.6°
Maximum altitude 18:22:09 17° 183° (S) 1,399 9.3 -7.4°
Drops below altitude 10° 18:24:45 10° 142° (SE) 1,753 10.9 -7.1°
Sets 18:27:29 0° 122° (ESE) 2,608 12.9 -6.8°
